Miller Place, New York, United States (11764)
Lat: 40.96N, Lon: 73W
Wx Zone: NYZ078
Local Info
Past Weather Observations for Today

NOTE: This archive is for the closest National Weather Service station to Miller Place. Information may differ from the station used for current weather conditions.

Click here for Long-term Archive

Time Weather Temperature Dewpoint Humidity Pressure Winds Precip Visibility
17:56
Clear
66°F / 19°C 57°F / 14°C 73% 30.15 in
(1021 mb)
S 16.1 mph
(S 26 kph)
- 10SM
16:56
Clear
68°F / 20°C 59°F / 15°C 73% 30.15 in
(1021 mb)
SSE 15 mph
(SSE 24 kph)
- 10SM
15:56
Partly Cloudy
70°F / 21°C 61°F / 16°C 73% 30.18 in
(1022 mb)
S 19.6 mph
(S 32 kph)
- 10SM
14:56
Partly Cloudy
70°F / 21°C 61°F / 16°C 73% 30.18 in
(1022 mb)
S 20.7 mph
(S 33 kph)
- 10SM
14:33
Mostly Cloudy
72°F / 22°C 61°F / 16°C 69% 30.18 in
(1022 mb)
SW 12.7 mph
(SW 20 kph)
- 10SM
13:56
Overcast
70°F / 21°C 61°F / 16°C 73% 30.18 in
(1022 mb)
SSE 18.4 mph
(SSE 30 kph)
- 10SM
12:56
Overcast
72°F / 22°C 63°F / 17°C 73% 30.21 in
(1023 mb)
S 17.3 mph
(S 28 kph)
- 10SM
12:30
Overcast
72°F / 22°C 63°F / 17°C 73% 30.21 in
(1023 mb)
S 17.3 mph
(S 28 kph)
- 10SM
11:56
Overcast
72°F / 22°C 63°F / 17°C 73% 30.21 in
(1023 mb)
SSE 11.5 mph
(SSE 19 kph)
- 10SM
11:29
Overcast
70°F / 21°C 63°F / 17°C 78% 30.21 in
(1023 mb)
SSE 16.1 mph
(SSE 26 kph)
- 10SM
10:56
Overcast
68°F / 20°C 61°F / 16°C 78% 30.21 in
(1023 mb)
SSE 10.4 mph
(SSE 17 kph)
- 10SM
09:56
Overcast
66°F / 19°C 61°F / 16°C 83% 30.21 in
(1023 mb)
SW 12.7 mph
(SW 20 kph)
- 9SM
08:56
Overcast
66°F / 19°C 61°F / 16°C 83% 30.21 in
(1023 mb)
SSE 12.7 mph
(SSE 20 kph)
- 10SM
07:56
Overcast
66°F / 19°C 61°F / 16°C 83% 30.21 in
(1023 mb)
SSE 12.7 mph
(SSE 20 kph)
- 10SM
06:56
Overcast
64°F / 18°C 61°F / 16°C 88% 30.21 in
(1023 mb)
SSE 12.7 mph
(SSE 20 kph)
- 10SM
05:56
Mostly Cloudy
63°F / 17°C 59°F / 15°C 88% 30.21 in
(1023 mb)
SSE 11.5 mph
(SSE 19 kph)
- 9SM
05:45
Mostly Cloudy
64°F / 18°C 61°F / 16°C 88% 30.21 in
(1023 mb)
S 10.4 mph
(S 17 kph)
- 9SM
04:56
Partly Cloudy
63°F / 17°C 59°F / 15°C 88% 30.21 in
(1023 mb)
SSE 8.1 mph
(SSE 13 kph)
- 9SM
04:28
Partly Cloudy
63°F / 17°C 59°F / 15°C 88% 30.21 in
(1023 mb)
SW 11.5 mph
(SW 19 kph)
- 9SM
03:56
Partly Cloudy
64°F / 18°C 59°F / 15°C 83% 30.21 in
(1023 mb)
SSE 10.4 mph
(SSE 17 kph)
- 10SM
02:56
Clear
64°F / 18°C 59°F / 15°C 83% 30.18 in
(1022 mb)
SW 12.7 mph
(SW 20 kph)
- 10SM
01:56
Partly Cloudy
64°F / 18°C 59°F / 15°C 83% 30.21 in
(1023 mb)
SW 9.2 mph
(SW 15 kph)
- 10SM
00:56
Clear
64°F / 18°C 59°F / 15°C 83% 30.21 in
(1023 mb)
SW 11.5 mph
(SW 19 kph)
- 10SM
Time Weather Temperature Dewpoint Humidity Pressure Winds Precip Visibility


Weather for websites

WeatherForYou.com, LLC is not responsible for any damages or problems caused by this service. Current weather conditions are obtained from the closest station including government and personal stations which may have varying degrees of accuracy. Weather forecasts are derived from the NOAA NDFD. Like all things, this site belongs to Jesus Christ... He just trusts us to maintain it. If you have any questions or comments email webmaster@weatherforyou.com

Copyright © 2015, WeatherForYou.com LLC. All rights reserved.